Regional Weather Roundup
Issued by NWS

Home | Current Version | Previous Version | Text Only | Print | Product List | Glossary On
Versions: 1 2 3 4 5 6 7 8 9 10 11 12 13 14 15 16 17 18 19 20 21 22 23 24 25 26 27 28 29 30 31 32 33 34 35 36 37 38 39 40 41 42 43 44 45 46 47 48 49 50
000
ASUS43 KIND 151609
RWRIN

WEATHER ROUNDUP FOR INDIANA
NATIONAL WEATHER SERVICE INDIANAPOLIS IN
1100 AM EST FRI DEC 15 2017

NOTE: "FAIR" INDICATES FEW OR NO CLOUDS BELOW 12,000 FEET WITH NO
SIGNIFICANT WEATHER AND/OR OBSTRUCTIONS TO VISIBILITY.

* - STATION DOES NOT REPORT WEATHER SUCH AS PRECIPITATION OR FOG.

+ - STATION NOT QUALITY CONTROLLED BY THE NATIONAL WEATHER SERVICE.
    USE DATA WITH CAUTION...ESPECIALLY DEWPOINT AND RELATIVE
    HUMIDITY OBSERVATIONS.

INZ001>003-010>013-019-020-151700-
NORTHWEST INDIANA

CITY           SKY/WX    TMP DP  RH WIND       PRES   REMARKS
GARY /AIRPORT/ CLOUDY    28  16  59 W17G29    29.95S WCI  16
KNOX *+        CLOUDY    27  21  80 W15       29.94R WCI  15
LA PORTE +     LGT SNOW  24  22  91 W9        29.93R VSB 3/4 WCI  15
MICHIGAN CITY+ CLOUDY    28  19  69 W10G21    29.93R WCI  19
MONTICELLO +   CLOUDY    28  20  73 W16G25    29.97S WCI  15
RENSSELAER +   CLOUDY    30  14  51 W21G29    29.97R WCI  17
VALPARAISO     LGT SNOW  27  21  78 W10       29.94R WCI  17

$$

LMZ046-743>745-151700-
SOUTHERN LAKE MICHIGAN

STATION/POSITION TIME  TEMP    WIND        PRES    WAVE
                       AIR SEA DIR/SP/G            HT
                 (UTC) (F)     (DEG/KT/KT) (MB)    (FT)
BURNS HARBOR     1540   28     280/ 20/ 26 1013.5F
MICHIGAN CITY    1540   27     270/ 26/ 29   N/A

$$

INZ004-005-014>016-021>024-151700-
NORTH CENTRAL INDIANA

CITY           SKY/WX    TMP DP  RH WIND       PRES   REMARKS
ELKHART        LGT SNOW  25  19  80 SW12G17   29.90R WCI  14
GOSHEN         LGT SNOW  24  19  81 SW15      29.90S WCI  11
LOGANSPORT +   CLOUDY    27  21  80 W15G22    29.98R WCI  15
PERU/GRISSOM   CLOUDY    26  21  81 W17       29.95S WCI  13
ROCHESTER +    LGT SNOW  28  23  80 W10G18    29.94S WCI  19
SOUTH BEND     SNOW      23  22  96 W13       29.91R VSB 1/2 WCI  11
WARSAW +       LGT SNOW  25  19  80 W9        29.92S WCI  15

$$

INZ006>009-017-018-025>027-151700-
NORTHEAST INDIANA

CITY           SKY/WX    TMP DP  RH WIND       PRES   REMARKS
AUBURN +       CLOUDY    27  18  69 SW14G21   29.91S WCI  15
FORT WAYNE     FLURRIES  26  19  74 SW18G26   29.93R WCI  13
HUNTINGTON +   CLOUDY    26  19  76 W12G21    29.94S WCI  15
KENDALLVILLE + LGT SNOW  24  19  80 W21       29.88F WCI   9

$$

INZ028-029-035-036-043>045-051>053-151700-
WEST CENTRAL INDIANA

CITY           SKY/WX    TMP DP  RH WIND       PRES   REMARKS
CRAWFORDSVL +  CLOUDY    26  20  79 MISG        N/A
GREENCASTLE +  CLOUDY    28  19  69 SW5       30.04R WCI  23
LAFAYETTE      CLOUDY    28  21  75 W14G22    30.00R WCI  17
TERRE HAUTE    CLOUDY    29  19  66 W13       30.07R WCI  19

$$

INZ030>032-037>040-046>048-054>057-064-065-151700-
CENTRAL INDIANA

CITY           SKY/WX    TMP DP  RH WIND       PRES   REMARKS
ANDERSON       CLOUDY    27  18  69 SW12G18   29.99R WCI  16
COLUMBUS       CLOUDY    28  16  59 W17G23    30.06R WCI  16
FRANKFORT +    CLOUDY    30  22  72 W17G24    30.00S WCI  18
INDIANAPOLIS   CLOUDY    28  18  66 SW16      30.02S WCI  16
-EAGLE CREEK   CLOUDY    28  17  63 SW9       30.01R WCI  19
KOKOMO +       FLURRIES  26  21  81 W17G23    29.97S WCI  13
MARION +       CLOUDY    26  19  75 W16G23    29.97  WCI  14
MT COMFORT *+  CLOUDY    27  21  80 SW12      30.01S WCI  16
SHELBYVILLE    CLOUDY    29  17  61 W14       30.02R WCI  18
ZIONSVILLE +   CLOUDY    26  19  73 SW14G21   29.99S WCI  14

$$

INZ033-034-041-042-049-050-058-059-151700-
EAST CENTRAL INDIANA

CITY           SKY/WX    TMP DP  RH WIND       PRES   REMARKS
MUNCIE         CLOUDY    29  17  61 W15       29.97R WCI  18
RICHMOND +     PTSUNNY   28  19  69 SW20      29.99S WCI  15

$$

INZ060-061-067>069-081>083-085>088-151700-
SOUTHWEST INDIANA

CITY           SKY/WX    TMP DP  RH WIND       PRES   REMARKS
EVANSVILLE     SUNNY     34  22  61 W9        30.15R WCI  27
HUNTINGBURG +  MOSUNNY   33  21  61 SW12      30.13R WCI  24
WASHINGTON +   CLOUDY    31  18  58 SW12      30.12R WCI  22

$$

INZ062-063-066-070>080-084-089>092-151700-
SOUTH CENTRAL AND SOUTHEAST INDIANA

CITY           SKY/WX    TMP DP  RH WIND       PRES   REMARKS
BLOOMINGTON    CLOUDY    29  17  61 W9        30.06R WCI  20
MADISON *+     MOSUNNY   32  21  64 W9        30.09S WCI  24
NORTH VERNON + MOSUNNY   28  19  69 SW14      30.06S WCI  17

$$





USA.gov is the U.S. government's official web portal to all federal, state and local government web resources and services.